User: anonymous
Location: Maiden
(35.5760°N, 81.2120°W)
Time: 17:16:36
(UTC-04:00)
Language:

Cosmos 2151 - Orbit

View from above orbital plane
View from above orbital plane
View from above satellite
View from above satellite

Ground track
Ground track

The orbit data is extracted from the following two-line orbital elements,

1 21422U 91042A   14244.29067944  .00000625  00000-0  61645-4 0  9880
2 21422 082.5025 136.2349 0016378 098.3023 262.0054 14.90257308256497
Epoch (UTC): 01 September 2014 06:58:34
Eccentricity: 0.0016378
inclination: 82.5025°
perigee height: 586 km
apogee height: 608 km
right ascension of ascending node: 136.2349°
argument of perigee: 98.3023°
revolutions per day: 14.90257308
mean anomaly at epoch: 262.0054°
orbit number at epoch: 25649

The dashed part of the orbit path shows where the satellite is in the earth's shadow,  

DLR